Theta_e
304 306 309 310 314 315 312 311 309 309 309 310 313 314 311 311 311 307 301 297 298 298 296 295 295 295 295 294 293 293 292 291 291 290 289 289 288 288 287 287 287 287 287 288 289 289 290 290 290 290 290 290 291 291 291 291 291 290 290 291 290 290 290 290 290 290 290 290 290 290 289 289 289 289 289 289 288 288 288 288 287 287 287 287 286 286
305 308 315 313 311 309 306 306 306 306 308 309 310 310 309 310 308 303 301 299 298 299 297 295 295 295 294 293 292 292 291 291 290 290 289 289 288 287 287 287 287 287 288 288 289 289 289 289 289 290 290 290 290 289 289 289 289 289 289 289 288 288 288 288 288 288 288 288 288 288 288 288 288 287 287 287 287 287 287 287 286 286 285 285 284 284
311 312 316 308 302 303 305 304 305 306 308 309 309 308 309 310 306 302 301 301 299 299 297 295 295 294 293 292 292 291 290 290 289 289 289 288 287 287 287 287 287 288 288 288 289 288 289 289 289 289 289 288 288 288 288 288 288 288 288 288 287 287 287 287 287 287 287 287 286 286 286 286 286 286 286 286 286 286 285 285 285 285 284 283 283 283
312 311 308 300 298 304 306 305 305 306 308 310 308 308 311 308 306 306 302 299 299 298 297 295 295 294 293 291 291 291 289 289 289 288 288 287 287 286 286 286 287 287 287 287 287 288 288 288 288 288 288 287 288 288 288 288 287 287 286 286 286 286 286 286 285 285 285 285 285 285 285 284 284 284 284 284 284 284 284 284 284 284 283 283 283 282
311 306 299 298 302 304 305 306 307 307 309 312 309 309 312 308 306 307 301 298 298 297 296 296 295 294 293 292 291 290 289 289 288 288 288 287 286 286 286 286 286 286 286 287 287 287 287 287 287 287 287 287 288 288 287 286 286 285 285 284 284 284 284 284 283 283 283 283 284 284 284 284 284 284 284 284 284 284 284 284 283 283 282 282 281 281
310 302 298 303 306 305 306 308 308 307 309 312 309 305 308 308 306 302 299 300 300 298 297 298 301 298 294 293 291 290 289 288 288 288 287 287 286 286 285 285 285 285 285 286 286 286 286 286 286 286 287 287 287 286 285 285 285 284 284 284 283 283 283 282 282 282 282 282 282 282 282 282 282 282 282 281 281 281 281 281 281 281 280 280 280 280
305 300 300 307 309 308 308 308 306 306 309 308 304 302 304 305 304 301 301 305 306 304 299 299 304 302 295 293 292 289 289 288 288 288 287 287 286 285 285 284 285 285 285 285 285 285 285 286 286 286 286 286 285 284 284 284 284 284 284 283 282 281 281 281 281 280 280 280 280 280 280 280 279 279 279 279 279 279 279 279 279 279 279 279 279 279
303 304 306 308 311 310 308 306 303 304 309 307 302 301 305 304 304 304 303 306 306 303 300 298 301 304 298 294 292 289 289 288 287 287 287 287 286 285 285 284 284 285 285 285 285 285 285 285 285 285 285 284 284 284 283 283 283 283 282 281 280 280 280 280 280 279 279 279 279 279 279 278 278 278 278 278 278 278 278 279 279 279 279 278 278 278
302 307 306 305 309 308 306 304 301 302 305 305 301 301 303 303 304 304 303 305 304 301 303 300 298 304 302 293 291 290 290 289 287 287 287 287 286 285 284 284 284 284 284 284 284 284 284 283 283 283 283 283 283 283 283 282 282 281 280 280 279 279 279 279 279 279 278 278 278 278 277 277 277 277 277 277 277 278 278 278 278 278 278 277 277 277
302 303 302 302 306 306 303 301 300 303 302 300 299 299 300 301 302 303 303 305 303 302 306 302 298 304 303 293 291 292 291 289 287 287 287 286 286 285 284 284 284 284 284 284 284 283 283 283 283 283 283 283 283 283 282 281 280 280 279 279 279 278 278 278 278 278 277 277 277 277 276 276 276 277 277 277 277 277 277 277 277 277 277 277 276 276
300 301 300 301 302 301 300 299 297 300 299 297 299 301 300 300 301 303 304 303 304 306 305 300 298 302 303 296 292 292 291 289 287 286 286 286 286 285 285 284 284 284 284 283 284 283 283 283 283 283 283 283 282 281 281 280 279 278 278 278 278 277 277 277 276 276 276 276 276 276 275 275 275 275 275 276 276 276 276 276 276 275 275 275 275 276
303 303 302 300 299 298 299 300 296 295 296 297 301 302 301 301 301 302 305 303 305 309 304 298 297 301 303 297 291 290 289 289 287 286 286 286 286 285 285 284 284 284 283 283 283 283 282 282 282 282 281 281 280 280 279 278 277 277 276 276 276 276 276 276 275 275 275 275 275 275 274 274 274 274 274 274 274 274 274 274 274 274 274 274 274 274
306 305 301 299 299 297 300 302 300 299 299 301 303 305 305 305 304 304 306 304 306 308 300 297 299 300 298 292 289 289 288 288 287 286 286 285 286 286 285 285 284 284 283 282 282 282 281 281 280 280 279 279 279 279 278 277 276 275 275 275 275 275 275 275 275 274 274 274 274 273 273 273 272 272 272 272 272 272 272 272 272 272 272 272 272 273
306 305 301 301 300 297 299 302 303 302 302 302 303 305 306 306 305 307 307 303 303 303 297 295 298 299 295 290 288 288 288 288 287 285 285 285 285 286 285 285 284 284 283 282 281 280 280 279 279 278 278 278 278 277 276 275 274 274 274 273 273 273 273 273 272 272 272 272 272 271 271 271 271 271 271 271 271 271 271 271 271 270 270 271 271 271
305 304 300 301 300 299 300 300 299 300 301 301 299 301 305 305 303 305 308 304 302 303 299 297 298 298 296 291 288 288 288 287 286 285 285 285 285 285 285 285 284 283 282 281 280 280 279 279 278 278 277 277 276 276 275 274 273 273 272 272 271 271 271 271 271 271 271 271 270 270 271 270 270 270 270 271 270 270 270 270 270 270 270 270 271 271
302 303 299 298 297 299 301 297 296 299 301 299 298 301 304 305 304 302 302 300 300 302 302 298 295 291 290 289 288 288 288 287 287 286 285 285 284 284 285 284 284 283 282 281 280 279 278 278 277 277 276 276 275 275 274 273 272 272 271 271 270 270 270 270 270 270 270 270 270 270 270 270 270 270 270 270 270 269 269 269 270 270 270 270 270 270
302 303 301 299 298 298 298 297 296 298 302 300 299 302 300 298 303 303 298 295 296 301 300 296 293 289 288 289 287 287 288 287 288 288 286 285 284 284 284 284 284 283 281 280 280 279 278 277 276 276 275 275 275 274 273 272 271 271 270 270 270 270 270 270 270 270 270 270 270 270 270 270 270 270 269 269 269 269 269 269 269 270 270 269 270 270
300 303 303 300 301 299 294 295 296 294 299 302 302 302 297 296 301 302 301 300 301 304 301 296 294 291 292 293 288 286 288 287 287 288 287 285 284 284 283 283 283 282 281 280 279 278 277 276 276 275 275 274 274 273 272 271 271 271 270 270 270 270 270 270 270 270 270 270 270 270 269 269 269 269 269 269 269 269 269 268 269 269 269 269 269 269
298 303 304 299 300 300 295 296 299 296 296 298 298 298 297 300 303 302 302 303 302 303 302 298 294 292 293 292 288 287 288 287 286 286 286 286 285 284 282 282 283 282 280 279 278 277 276 275 275 274 274 273 273 272 271 271 270 270 270 270 270 269 269 269 270 270 269 269 269 269 269 269 268 268 269 268 268 268 268 268 268 268 268 269 269 269
298 301 304 300 297 298 298 299 301 300 298 298 298 299 299 302 302 300 300 300 300 302 302 299 298 296 292 290 288 288 287 286 286 285 285 285 284 283 282 282 282 281 280 278 277 276 275 275 274 273 273 273 272 272 271 270 270 270 270 269 269 269 269 269 269 269 269 268 268 268 268 268 268 268 268 268 268 268 268 268 268 268 268 268 268 268
299 300 302 302 299 298 299 298 297 298 298 300 303 302 300 301 300 298 297 297 299 302 302 301 301 297 289 287 288 287 286 286 285 285 285 284 284 282 281 281 281 280 279 277 276 275 275 275 274 273 273 272 272 271 270 270 270 269 269 269 269 269 268 268 269 268 268 268 268 268 268 267 268 268 268 268 267 267 267 267 267 267 267 267 267 267
300 299 299 302 302 299 298 294 293 295 295 297 300 299 296 297 299 300 300 298 298 300 300 299 301 296 287 286 287 285 286 286 284 284 284 283 283 282 280 280 280 279 278 277 276 275 275 274 273 273 272 272 271 271 270 269 269 269 268 268 268 268 268 268 268 268 268 268 268 267 267 267 267 267 267 267 267 267 267 267 267 266 265 265 266 266
297 298 299 301 299 297 295 292 291 292 292 294 294 292 293 296 298 301 302 300 297 298 297 297 300 294 286 285 286 285 285 285 284 284 283 282 282 281 280 280 279 279 277 276 275 274 274 273 273 272 272 271 271 270 269 268 268 268 268 268 268 268 268 268 267 267 267 267 267 267 267 267 267 266 266 266 266 266 266 266 265 265 264 264 265 265
296 297 300 302 300 297 296 293 291 292 293 295 293 289 291 293 293 295 297 296 296 298 298 298 300 294 286 285 286 284 284 284 283 283 282 282 281 280 279 279 278 278 276 275 275 274 273 273 272 272 271 271 270 269 268 268 268 268 268 268 268 267 267 267 267 266 266 266 266 266 266 266 265 265 265 265 265 265 265 264 263 263 263 263 264 264
296 297 299 303 304 302 301 300 298 296 295 295 292 289 288 289 290 292 292 294 296 295 294 297 300 293 286 285 285 284 284 284 283 282 282 281 280 279 279 278 277 276 275 275 274 273 273 272 271 271 270 270 269 268 268 268 267 267 267 267 267 267 267 266 265 265 265 265 265 265 265 265 264 264 265 264 264 264 263 262 262 262 263 263 263 263
296 297 298 302 303 302 303 303 300 297 295 293 292 290 288 289 290 293 294 297 298 293 291 295 297 291 286 285 285 284 283 283 282 282 281 281 280 279 278 277 276 275 275 274 273 273 272 271 271 270 270 269 269 268 268 267 267 267 267 267 266 266 266 265 265 264 264 265 265 265 264 264 264 264 264 264 263 262 262 262 262 262 262 262 263 263
298 297 296 300 302 299 300 298 294 293 294 294 293 291 290 288 289 292 296 297 294 292 293 293 291 290 288 285 284 283 282 282 282 281 281 280 279 278 277 276 275 275 274 273 273 272 271 270 270 269 269 269 268 268 267 267 266 266 266 266 266 266 265 265 264 264 264 264 264 264 264 264 264 263 263 263 262 262 262 262 262 262 262 262 262 262
300 299 294 296 298 294 294 293 290 291 292 291 291 291 289 289 290 293 294 292 290 292 295 292 288 290 288 284 283 282 282 282 281 281 280 279 278 277 277 276 275 274 273 272 272 271 270 270 269 269 269 268 268 267 267 266 266 266 266 266 265 265 264 264 263 263 264 264 264 264 264 263 263 263 262 262 262 262 262 262 262 262 262 262 261 261
299 301 294 293 294 291 290 290 290 290 290 288 289 289 288 289 291 291 290 289 288 291 292 290 288 289 286 282 282 282 281 281 281 280 279 278 278 277 276 275 274 273 272 271 271 270 270 269 269 269 268 268 267 267 266 266 265 265 265 265 264 264 264 263 263 263 264 264 263 263 263 263 262 261 261 261 261 261 262 262 262 262 261 261 261 260
295 300 295 292 294 292 290 290 290 290 290 289 288 288 288 288 289 289 289 288 288 289 289 288 288 287 284 281 281 282 281 280 279 279 278 278 277 276 275 274 273 272 271 271 270 270 269 269 268 268 268 267 266 266 265 265 265 265 265 264 264 264 263 263 263 263 263 263 263 263 262 262 261 261 261 261 261 261 262 261 261 261 261 261 260 260
294 296 293 292 296 295 291 290 290 290 292 291 289 287 287 288 289 288 289 288 288 288 287 286 286 286 283 281 281 281 280 279 279 278 278 277 276 275 274 273 272 271 271 270 270 269 269 268 268 268 267 266 266 265 265 264 264 264 264 264 264 263 263 263 263 263 263 263 263 262 262 261 261 261 261 261 261 261 261 261 261 261 261 260 260 259
295 296 294 294 297 296 292 291 291 290 290 291 290 287 287 288 288 288 288 287 287 287 286 286 286 285 282 281 281 280 279 279 278 278 277 276 275 274 273 272 271 271 270 270 269 268 268 268 267 266 266 265 265 264 264 264 264 264 264 264 263 263 263 263 263 263 263 263 262 262 261 261 261 261 261 261 261 261 261 261 260 260 260 260 259 259
291 297 298 294 294 296 292 290 290 290 292 293 290 286 286 287 287 287 287 286 285 285 286 287 285 282 281 281 280 279 279 278 278 277 276 275 274 273 272 271 271 270 270 269 268 268 268 267 266 266 265 265 265 264 264 264 264 264 264 263 263 263 263 263 263 263 263 262 261 261 260 260 260 260 260 260 260 260 260 260 260 260 259 259 258 258
290 296 297 290 292 298 295 290 290 293 295 293 287 284 285 286 286 286 286 285 284 283 284 283 282 281 280 280 279 278 278 278 277 276 275 274 273 273 272 271 271 270 269 268 267 267 267 266 266 265 265 264 264 264 264 264 264 264 263 263 263 263 263 263 262 262 262 261 261 260 260 260 260 260 260 260 260 259 259 259 259 259 258 258 258 258
295 297 295 289 291 296 294 291 293 295 293 288 284 284 284 285 285 285 284 283 281 281 281 280 280 280 280 279 278 278 277 276 276 275 274 274 273 272 272 271 270 269 268 267 267 267 266 266 265 265 265 264 264 264 264 264 263 263 263 263 263 263 262 262 262 262 262 261 260 260 260 260 260 260 260 260 259 259 259 259 259 259 258 258 257 257
295 296 293 289 291 292 291 291 291 290 287 285 285 285 284 285 285 284 284 282 280 280 280 279 279 279 279 278 278 277 276 275 275 274 274 273 273 272 271 270 269 268 268 267 266 266 266 265 265 264 264 264 264 263 263 263 263 263 263 263 262 262 262 262 262 262 261 261 260 260 260 260 260 260 260 260 260 259 259 259 259 259 258 258 257 257
292 295 292 289 289 290 290 291 291 289 287 287 287 285 284 284 284 283 284 283 279 279 279 279 279 278 278 277 276 275 274 274 274 274 273 273 272 271 270 270 269 268 267 266 266 265 265 265 264 264 264 263 263 263 263 263 262 262 262 262 262 262 262 262 262 262 261 261 261 260 260 260 260 260 260 260 259 259 259 259 259 259 258 258 257 257
286 289 291 291 290 289 290 292 292 292 290 288 286 284 283 283 283 282 283 282 279 278 279 279 278 277 277 276 275 274 274 274 274 274 273 272 271 270 269 269 268 267 266 266 265 265 265 264 264 264 263 263 263 263 263 263 262 262 262 262 262 262 262 263 262 262 261 261 261 260 260 260 260 260 260 259 259 259 259 259 259 259 258 258 257 257
286 287 290 293 291 289 291 292 292 292 290 287 285 284 283 283 282 281 283 284 280 278 279 278 277 277 276 275 274 274 273 273 274 274 273 271 270 269 269 268 267 266 266 265 265 264 264 264 264 264 263 263 263 263 263 262 262 262 262 262 262 262 262 262 262 261 261 261 261 260 260 260 260 259 259 259 259 259 259 259 259 258 258 257 256 256
291 290 289 291 290 287 289 291 291 290 288 285 284 284 283 282 281 282 285 285 280 278 278 278 276 276 275 274 274 273 273 273 273 273 272 270 269 269 268 267 266 265 265 265 264 264 263 263 263 263 263 263 263 262 262 262 262 262 262 261 262 262 261 261 261 261 261 261 260 260 260 260 260 259 259 259 259 259 259 259 258 258 257 257 256 256
292 289 287 288 289 287 288 290 289 288 287 284 284 283 282 282 282 285 287 283 279 278 279 277 276 276 274 274 273 273 273 273 272 271 270 269 268 268 267 266 266 265 265 265 264 263 263 263 263 263 263 263 262 262 261 261 261 261 261 261 261 261 261 261 261 260 261 261 260 260 260 260 260 259 259 259 259 259 259 258 258 257 257 256 256 256
290 289 287 288 288 286 286 288 288 288 285 282 282 283 282 283 285 285 283 280 279 279 278 277 276 275 274 273 273 272 272 271 270 269 269 268 268 267 267 266 266 265 265 264 263 263 263 263 263 263 263 262 262 262 262 261 261 261 261 261 261 261 261 261 261 261 261 260 260 260 260 260 260 259 259 259 259 259 259 258 258 258 257 256 256 256
288 289 289 289 287 285 286 287 289 288 285 281 282 284 283 283 284 283 280 279 279 278 277 276 276 274 273 273 272 272 271 270 269 269 268 268 267 266 266 266 265 265 264 264 264 263 263 263 263 263 263 262 262 262 262 261 261 261 261 261 261 261 261 261 261 261 261 260 260 260 260 260 260 259 259 259 259 258 258 258 258 258 258 257 256 256
286 287 290 289 286 287 291 291 288 287 284 282 283 284 283 282 282 280 279 279 278 277 277 276 275 274 273 273 271 271 270 269 268 268 267 267 267 266 266 265 265 264 264 264 264 263 263 263 263 263 263 262 262 262 262 261 261 261 261 261 261 261 261 261 261 261 261 260 260 260 260 260 260 259 259 258 258 258 258 257 257 258 258 257 256 256
287 286 287 287 286 286 289 290 287 284 284 283 283 282 282 281 280 280 279 278 277 277 276 275 274 274 273 272 271 270 269 268 268 267 267 266 266 265 265 265 264 264 264 263 263 263 263 263 263 262 262 262 262 262 261 261 261 261 261 261 261 261 261 261 261 261 261 260 260 260 260 260 260 259 259 258 258 258 258 257 257 257 258 257 256 256
284 284 284 285 286 284 284 285 285 284 284 283 282 282 281 280 280 279 278 278 277 276 275 274 274 273 272 271 270 269 268 268 267 267 266 266 265 265 265 264 264 264 263 263 263 263 263 263 262 262 262 262 262 261 261 261 261 261 261 261 261 261 261 261 261 261 261 260 260 260 260 260 260 259 259 258 258 258 258 257 256 257 257 257 256 256
282 283 284 284 285 285 285 285 284 283 284 283 282 281 280 280 279 279 278 277 276 275 274 273 273 273 272 270 269 268 268 267 266 266 266 265 265 265 264 264 264 263 263 263 263 263 263 262 262 262 262 262 262 261 261 261 261 260 261 261 261 261 261 261 261 261 261 260 260 260 260 259 259 259 259 258 258 258 258 258 257 256 256 256 256 256
284 283 285 285 285 284 285 285 283 283 284 282 281 282 280 280 279 278 277 277 275 274 274 273 273 272 271 269 268 268 267 267 266 266 265 265 265 264 264 264 264 263 263 263 263 263 262 262 262 262 262 261 261 261 261 261 261 261 261 261 261 261 261 261 261 260 260 260 260 260 260 259 259 259 259 258 258 258 258 258 258 257 257 257 255 255
283 284 285 284 284 284 285 284 283 283 283 282 281 281 280 279 279 278 277 276 275 274 274 273 273 272 270 269 268 267 267 267 266 266 265 265 265 264 264 264 263 263 263 263 262 262 262 262 262 261 261 261 261 261 261 261 261 261 261 261 261 261 261 261 261 260 260 260 260 260 260 259 259 259 258 258 258 257 257 257 257 257 257 257 256 256
284 286 285 283 286 287 286 285 283 283 284 282 282 281 280 279 279 278 277 276 274 274 273 273 272 271 270 269 268 267 267 267 266 266 265 265 264 264 264 263 263 263 263 262 262 262 262 262 262 261 261 262 261 261 261 261 261 261 260 261 261 261 260 260 260 261 261 260 260 260 259 259 259 259 258 258 257 257 257 257 257 257 256 257 257 257
286 287 286 286 288 287 286 285 284 283 283 282 282 281 280 279 278 277 276 275 274 273 273 273 272 270 269 269 268 267 267 266 266 265 265 265 264 264 264 263 263 263 263 263 263 263 262 262 262 262 262 262 261 261 261 260 260 261 260 260 261 260 260 260 260 260 260 260 260 260 259 259 259 259 258 258 257 257 257 258 258 258 258 257 257 258
Wind_Speed
2 1 2 4 6 5 6 6 5 4 3 2 4 3 3 4 2 0 3 2 6 10 6 5 9 7 5 4 7 14 16 19 19 19 20 21 23 26 28 29 29 30 29 26 25 24 23 22 21 20 19 18 18 17 16 16 16 16 14 13 14 14 12 11 12 13 14 14 14 15 15 15 16 16 17 17 18 19 20 21 22 22 23 24 25 26
3 1 5 7 7 5 4 4 4 4 3 3 3 3 1 3 1 1 3 2 1 7 3 4 9 7 5 5 9 15 15 14 15 16 17 19 20 23 25 26 26 26 25 24 23 22 21 20 19 18 17 17 17 18 17 18 17 16 16 16 16 16 15 16 17 17 17 18 19 20 20 20 20 21 22 22 23 23 23 24 24 24 25 26 26 26
3 3 7 6 4 2 2 3 4 3 3 3 1 3 1 2 3 2 3 4 3 6 4 4 8 6 4 7 10 14 13 13 17 17 17 19 20 21 22 23 25 25 23 23 22 21 19 18 18 17 18 18 18 18 18 18 17 17 18 19 19 19 20 20 20 20 20 21 21 22 23 23 24 24 25 25 26 27 27 27 27 27 28 28 27 26
2 4 5 2 4 4 3 3 4 3 2 2 2 3 2 2 3 2 2 4 5 5 8 8 8 5 5 7 8 12 14 15 18 20 20 21 21 21 21 22 23 24 23 22 21 19 18 17 17 18 19 19 17 17 18 19 20 22 23 24 24 24 24 24 24 25 24 24 24 24 24 25 26 26 27 27 27 28 29 29 29 30 30 30 29 28
4 3 0 2 3 3 2 2 3 4 2 2 3 4 3 3 2 3 4 5 7 6 8 11 7 2 4 6 5 7 12 14 16 18 19 19 19 20 21 22 23 22 21 20 20 18 17 17 18 19 19 18 18 20 21 23 24 26 27 27 27 27 27 27 27 28 28 28 27 27 27 26 27 27 28 29 29 30 31 31 31 31 31 31 31 29
5 3 0 2 4 3 2 1 2 4 1 4 2 4 5 5 5 9 9 5 6 1 6 6 3 2 3 6 6 4 6 9 12 15 15 15 16 18 20 21 21 21 19 19 19 18 17 18 18 18 18 19 21 23 24 25 26 27 28 28 29 29 29 29 29 29 30 30 30 31 31 30 30 30 30 30 31 32 33 33 33 33 32 31 31 29
2 2 1 3 4 5 3 1 3 3 3 2 1 3 4 6 9 11 9 3 3 3 6 5 3 2 3 4 6 5 5 7 8 11 12 12 14 16 18 19 18 18 17 17 17 16 17 17 17 17 19 21 23 25 26 27 27 27 28 29 30 30 30 30 30 30 30 30 30 30 31 30 31 31 31 31 31 32 33 33 33 33 32 31 30 29
1 4 5 5 5 5 4 2 1 4 5 1 2 3 4 6 7 9 7 3 3 1 1 3 3 2 3 4 7 8 7 6 6 7 8 10 12 15 17 16 16 16 15 15 15 15 17 17 19 20 21 23 24 26 27 28 27 27 28 30 31 30 30 30 29 29 29 30 30 29 29 28 28 29 30 31 31 31 32 33 33 33 32 32 31 30
1 3 4 4 5 3 1 2 2 3 2 2 3 3 2 3 3 5 5 3 0 2 1 4 4 1 2 3 6 7 6 5 5 5 5 8 11 13 14 14 14 14 13 13 14 15 17 18 20 21 22 24 26 27 28 28 28 29 30 31 31 31 30 29 29 28 28 28 29 29 28 28 28 29 31 31 32 32 33 33 33 33 33 33 32 31
1 1 0 2 3 1 2 2 1 2 0 1 4 4 4 4 4 3 4 2 3 1 4 6 6 3 2 3 5 4 4 5 4 4 4 8 11 11 12 12 12 12 11 12 13 14 16 17 19 21 22 24 26 27 28 28 29 31 32 33 32 32 31 30 29 29 28 28 28 28 28 29 29 30 31 32 33 33 34 34 34 34 34 34 34 33
1 1 1 2 2 1 2 1 1 1 2 4 5 4 4 4 4 3 2 3 3 2 5 5 4 2 1 3 4 1 3 6 7 4 4 7 10 10 10 9 9 10 10 10 11 12 14 16 19 21 23 25 26 27 28 29 32 34 35 35 33 33 32 31 31 30 30 29 29 28 28 29 30 31 32 33 34 34 35 35 36 36 35 35 36 36
4 3 1 1 1 1 1 2 2 2 3 4 3 3 2 3 3 3 4 3 2 4 5 3 2 3 2 1 2 2 2 6 7 5 5 6 9 9 8 7 7 8 8 10 11 12 15 18 20 22 24 26 27 29 29 32 35 37 37 36 34 32 32 31 31 30 30 30 29 28 29 30 31 32 33 34 35 35 35 36 36 36 37 38 38 38
4 1 3 2 1 4 2 1 3 3 3 3 1 3 2 3 3 2 3 0 2 4 3 2 1 2 2 0 2 3 4 6 8 9 9 9 9 8 6 5 5 7 8 10 11 13 17 20 22 23 25 27 28 30 31 34 37 37 36 35 33 32 31 31 30 30 30 29 29 29 30 31 31 32 33 34 35 35 34 34 35 36 38 40 40 40
4 4 5 2 1 5 3 2 3 2 3 4 1 2 1 1 2 3 3 2 3 2 1 2 1 1 1 2 1 3 6 10 13 15 13 12 9 6 5 4 4 6 8 9 11 13 17 20 21 22 24 26 28 30 32 35 37 36 34 34 33 32 32 32 32 32 31 29 29 30 31 31 31 32 32 33 34 34 32 32 34 36 38 39 40 40
2 4 4 3 2 5 4 2 1 1 2 2 2 4 2 2 1 3 3 2 4 2 2 3 1 1 0 2 2 4 8 12 15 15 15 13 10 7 4 4 4 5 7 8 9 12 16 19 20 22 23 25 27 30 33 37 36 34 33 33 33 32 32 33 34 33 32 30 30 31 31 30 31 32 33 33 33 33 33 34 35 36 37 38 39 39
1 4 4 2 2 2 3 1 1 2 2 1 2 3 1 2 3 1 3 4 2 2 3 2 1 0 1 2 2 5 8 9 10 10 11 11 9 7 4 4 5 6 6 7 9 13 16 19 20 21 22 25 28 31 35 37 34 31 31 32 32 33 33 34 35 34 32 31 31 32 31 32 33 33 34 34 34 33 34 36 37 37 38 39 39 40
2 4 5 3 2 2 2 2 1 2 1 0 1 0 2 2 5 2 1 1 2 0 2 1 2 1 1 1 2 5 6 6 5 5 6 7 7 7 5 5 5 6 6 6 9 12 16 19 19 21 23 26 29 32 35 35 30 29 32 33 33 35 35 35 35 34 33 32 33 34 33 34 34 35 36 36 36 35 36 38 39 39 40 40 41 41
1 4 6 2 1 2 2 1 2 3 2 2 1 2 1 1 4 3 1 3 3 0 2 0 3 2 2 1 3 6 5 5 3 2 4 4 4 6 8 7 5 6 6 7 9 13 16 18 19 22 24 26 29 33 35 32 30 31 33 34 35 36 36 36 36 35 34 35 36 36 36 36 37 37 37 37 37 37 37 39 40 40 41 40 41 41
2 2 6 1 1 4 3 2 2 4 3 3 1 1 2 2 1 2 2 2 2 2 3 1 1 2 2 2 6 7 5 4 3 3 3 2 3 5 10 10 5 5 7 7 9 14 16 17 20 22 24 27 31 34 34 32 31 34 35 35 36 37 37 37 37 36 36 36 37 37 37 38 38 38 38 38 38 38 38 39 40 41 42 41 41 41
1 1 4 4 2 4 4 4 3 5 4 3 3 3 2 3 2 1 1 1 1 2 2 2 2 2 1 0 5 7 4 4 3 3 4 4 4 6 12 11 6 6 7 9 11 14 16 18 22 23 24 29 33 35 34 33 34 36 37 37 37 37 37 37 37 37 36 37 37 38 38 38 39 39 38 38 38 39 40 40 41 41 42 41 41 42
2 2 2 6 4 3 3 3 2 3 3 3 4 4 4 1 0 0 1 1 1 1 1 2 3 1 1 2 4 6 5 5 4 3 4 6 5 7 13 10 6 7 8 11 14 15 17 21 23 23 26 32 35 36 35 34 36 38 37 38 38 38 38 38 38 37 37 37 37 38 38 39 39 39 39 39 39 40 40 41 41 42 42 43 43 43
2 1 1 5 5 3 1 2 2 1 0 1 2 2 2 2 1 2 1 1 1 1 2 1 3 1 2 2 3 5 4 4 6 5 5 8 7 9 14 11 8 10 11 14 17 16 19 24 24 25 30 35 38 37 36 35 37 38 38 39 39 39 39 39 38 37 38 38 38 38 39 39 40 40 40 40 40 41 41 42 42 42 43 44 44 44
1 2 1 4 3 2 4 3 1 2 5 6 4 2 0 0 3 2 1 2 2 2 0 1 2 2 0 2 4 6 5 5 8 7 6 9 8 10 15 14 11 13 14 16 17 17 21 26 27 30 34 37 38 37 35 35 37 38 39 40 40 39 39 38 37 37 38 39 39 40 40 40 41 41 41 41 41 42 42 42 42 42 43 44 44 44
2 2 2 4 4 3 4 3 1 2 5 5 3 3 2 2 2 2 3 1 1 2 2 2 2 2 1 2 5 7 7 6 7 8 8 9 10 12 17 16 13 14 16 17 17 19 24 29 31 34 35 36 36 35 34 35 38 39 40 40 39 39 39 37 37 37 38 39 40 41 41 41 41 41 41 41 42 43 43 42 42 42 43 44 45 44
3 1 2 3 5 6 6 5 4 3 3 3 2 3 2 2 3 1 1 1 1 1 2 1 3 2 2 4 5 6 7 6 6 8 10 11 13 15 18 16 14 15 17 18 19 22 27 31 32 32 33 34 34 34 34 36 37 38 39 39 39 38 38 36 35 36 38 40 41 41 41 41 41 41 41 41 42 43 43 42 43 42 43 44 45 44
1 1 2 3 2 3 4 4 4 4 3 2 2 4 4 3 3 2 1 2 1 1 2 1 3 1 2 4 2 5 6 7 8 10 12 13 15 18 18 15 14 16 19 20 22 25 29 31 30 30 31 33 33 34 36 37 37 38 39 38 38 37 37 36 35 36 39 41 42 42 42 42 41 41 41 42 43 44 44 44 44 44 44 44 44 44
3 2 2 4 4 3 4 4 3 3 2 2 4 6 6 4 3 2 2 2 0 1 3 1 2 2 0 3 2 6 7 7 9 12 13 14 17 20 18 15 16 17 19 22 24 27 29 29 29 29 31 33 34 36 36 36 37 38 39 39 38 37 37 36 36 38 40 41 41 42 42 42 41 41 41 43 44 45 45 45 45 45 44 44 43 44
4 4 3 3 2 3 3 3 4 3 2 1 3 5 7 7 5 6 4 1 1 2 3 2 0 3 1 3 5 7 7 7 10 13 14 16 20 20 17 16 17 18 20 23 25 28 29 29 29 30 32 34 36 36 36 36 37 37 38 38 37 36 36 36 37 39 41 41 41 42 42 42 41 41 42 44 46 46 46 47 46 45 44 44 44 44
5 2 2 1 2 3 1 2 2 3 3 2 3 4 6 7 7 6 3 0 3 1 4 4 4 3 1 3 5 6 7 9 11 14 17 20 21 18 16 16 17 19 22 25 27 29 29 29 30 31 34 35 36 35 35 36 37 37 37 37 36 36 36 36 38 40 41 41 42 42 41 41 41 42 44 46 47 47 47 47 46 45 44 44 45 44
3 1 1 0 2 2 3 4 2 4 3 2 4 4 5 5 5 4 1 1 2 3 6 4 6 4 0 2 5 7 9 12 15 18 21 22 19 16 15 16 18 21 24 27 29 30 29 29 30 32 35 35 34 34 35 37 38 37 37 36 36 37 37 38 40 41 41 41 42 41 41 41 42 44 45 46 47 48 48 47 45 45 45 45 44 44
4 2 1 2 2 4 4 4 4 4 4 3 3 5 6 5 4 4 2 2 3 5 5 5 6 5 1 4 7 10 13 16 17 18 19 19 15 13 14 16 19 23 26 29 31 31 29 30 31 33 34 34 33 34 36 38 37 37 37 36 37 37 37 39 40 41 41 41 41 41 41 42 43 45 46 46 47 48 47 46 45 45 45 45 44 44
5 3 2 4 4 4 3 3 3 1 4 4 3 6 7 5 2 2 2 1 2 5 6 6 5 3 2 7 10 10 13 15 13 15 18 16 12 11 14 17 21 25 28 32 32 30 29 30 32 33 33 32 33 35 37 37 37 36 36 36 37 38 38 39 40 40 41 41 41 41 42 43 44 45 46 46 47 47 46 45 45 44 44 44 44 43
2 2 2 4 3 4 4 3 2 1 3 3 3 4 4 3 2 2 4 4 3 3 4 4 3 2 5 9 9 9 13 13 13 18 20 15 10 12 16 20 23 27 30 31 29 27 27 30 32 32 31 31 34 36 36 36 36 36 36 36 37 38 38 39 39 40 41 41 41 41 42 43 44 45 46 46 47 47 46 44 44 43 43 43 42 41
3 4 2 2 1 4 7 5 3 4 4 3 2 1 4 3 2 4 7 7 3 0 1 1 2 4 7 8 8 11 13 13 18 24 20 11 10 14 19 24 28 30 31 29 26 26 29 32 32 31 31 33 35 36 35 35 35 36 36 36 37 37 38 39 39 40 41 41 41 42 43 43 44 44 45 46 46 46 44 43 43 42 41 41 40 40
3 4 2 1 1 3 5 6 6 3 2 4 3 3 4 3 2 4 7 3 0 2 2 3 4 6 8 10 11 13 14 18 25 25 15 9 10 17 24 29 31 30 30 28 27 29 31 32 31 31 33 34 35 35 35 35 36 36 36 36 37 38 38 39 40 40 41 42 43 43 43 43 44 44 45 45 45 44 43 42 41 41 40 39 38 38
3 3 2 1 1 2 3 5 3 3 2 2 1 5 5 1 2 6 5 2 2 2 2 3 5 8 10 12 12 13 17 23 25 17 9 7 13 22 28 30 29 29 29 27 28 30 31 30 29 31 34 35 35 35 35 36 36 36 37 37 37 38 38 39 41 42 42 43 44 43 43 42 43 44 45 45 44 43 42 41 40 40 39 38 38 38
4 3 2 2 1 1 1 2 3 2 2 2 2 3 2 1 3 3 2 3 4 3 1 4 5 8 11 12 13 17 20 21 15 7 6 8 18 25 27 27 27 28 28 26 27 28 27 27 29 32 34 35 35 35 35 36 36 37 38 38 38 39 39 40 42 43 44 44 44 43 43 42 43 44 45 44 43 42 41 40 40 39 38 37 38 38
7 4 3 2 1 2 1 2 4 4 2 3 3 3 3 5 5 3 1 3 3 1 5 5 5 9 13 13 15 18 17 12 5 2 5 15 23 26 27 27 28 27 26 26 27 26 26 28 31 33 34 35 35 35 35 36 37 38 38 38 38 39 40 41 43 43 44 45 44 43 42 42 43 43 44 43 42 41 40 39 38 37 36 36 38 38
9 5 5 4 3 3 3 2 2 2 4 3 5 4 8 10 5 2 0 3 2 2 6 6 7 11 12 13 15 15 11 7 4 6 14 23 27 27 27 28 27 26 26 25 25 25 27 30 32 33 34 34 35 35 35 36 36 37 37 37 37 39 40 42 43 43 44 44 43 42 41 41 42 42 42 42 40 39 38 37 37 36 35 36 37 38
7 5 4 5 3 2 2 0 2 3 3 3 5 7 13 8 1 3 5 5 3 3 7 8 11 13 12 13 13 8 4 5 9 17 25 27 27 26 26 27 27 27 26 25 24 25 28 31 33 34 34 34 34 34 34 35 35 36 36 36 37 38 40 41 42 43 43 43 42 42 41 41 42 42 41 40 39 38 37 36 36 36 36 36 37 37
3 3 3 4 3 1 1 1 4 3 2 3 4 10 12 4 3 3 5 5 4 8 11 13 14 14 13 13 11 7 9 14 19 25 27 26 25 26 26 26 26 26 25 25 25 27 30 32 33 33 33 33 33 33 34 34 35 35 34 35 36 38 39 41 42 42 43 42 41 41 40 40 41 41 40 38 37 37 37 36 36 36 36 37 36 36
2 2 2 2 2 1 1 1 4 4 3 2 7 10 5 2 2 3 6 8 12 15 17 17 17 16 15 14 13 15 20 23 24 24 24 23 25 26 27 27 27 26 26 26 27 29 31 32 33 33 33 33 33 34 34 34 35 34 34 35 36 38 39 40 41 42 42 42 41 41 41 40 40 40 39 38 37 37 37 37 35 35 35 35 35 35
1 1 3 2 1 1 2 1 3 4 3 2 7 5 2 1 4 8 11 14 16 17 18 19 18 17 16 17 19 22 25 25 23 22 22 23 24 25 26 27 27 27 27 28 29 30 31 33 33 33 33 33 33 34 34 34 35 34 34 35 36 38 39 40 41 41 41 41 41 41 41 40 40 40 39 38 37 37 38 37 35 34 34 34 35 35
2 2 1 3 2 2 2 0 2 2 3 3 3 3 4 7 10 11 13 16 17 17 18 19 19 18 18 20 23 25 25 23 22 21 22 23 24 25 26 27 26 27 28 28 29 30 31 32 33 33 33 32 33 33 33 33 34 34 34 35 36 38 40 40 41 41 41 41 41 40 40 40 40 40 39 38 37 37 37 37 36 35 34 33 33 34
4 4 3 2 3 3 4 7 7 8 9 7 7 9 11 12 13 12 13 16 18 19 18 19 20 19 19 21 24 24 23 21 21 21 21 22 24 25 25 26 26 26 27 28 29 29 30 31 32 32 33 32 32 33 33 32 32 33 34 35 36 38 39 40 41 41 41 41 41 40 40 40 40 40 39 38 37 37 37 37 36 35 34 33 33 34
4 5 4 1 3 5 9 13 13 12 12 12 13 14 12 11 12 12 15 17 18 18 18 19 19 20 21 23 23 22 21 20 20 20 20 22 24 25 25 26 26 26 27 28 28 29 30 30 31 32 33 33 33 33 32 30 30 32 33 35 36 37 39 40 41 41 41 41 41 40 40 40 40 41 40 38 37 36 36 36 36 35 34 33 33 33
3 6 4 1 1 3 4 6 6 8 15 17 16 13 11 11 13 15 17 18 18 18 19 18 19 21 23 22 21 20 20 19 19 20 20 22 24 24 25 26 26 26 27 27 28 29 29 31 31 32 33 34 34 33 32 30 29 31 32 34 35 36 38 39 40 41 40 40 41 40 40 40 41 41 40 39 38 37 36 35 35 35 34 33 33 33
3 6 4 2 3 3 6 9 11 16 19 17 12 10 10 12 16 17 18 18 18 19 19 19 21 23 23 21 19 19 20 19 19 20 21 22 24 24 25 26 26 26 26 26 27 28 29 30 31 31 33 34 34 33 32 30 30 31 32 33 35 36 37 39 39 40 40 39 40 40 39 40 40 40 41 40 39 38 36 35 35 35 33 31 31 31
5 5 3 2 2 5 8 11 12 13 11 7 8 11 14 16 18 19 19 19 19 19 20 20 22 23 22 21 19 19 20 20 19 20 21 22 23 24 25 25 25 25 26 26 27 29 29 30 30 31 32 33 33 33 31 30 30 31 31 33 34 35 37 39 39 39 39 39 39 39 39 40 39 39 40 40 39 38 36 34 34 33 32 30 28 27
6 3 2 2 2 4 5 4 5 5 6 10 13 16 18 20 20 19 19 20 20 20 20 21 23 23 21 20 19 19 20 20 19 20 21 22 23 24 24 25 25 26 26 27 28 29 29 29 30 31 32 33 33 32 31 30 30 30 31 32 33 34 36 38 40 40 39 39 39 39 40 40 39 38 39 40 40 40 38 35 32 30 29 29 28 25
9 6 5 4 4 7 10 11 9 8 12 16 19 20 21 22 21 19 20 20 20 20 20 22 24 23 21 19 18 18 19 19 19 20 21 22 22 23 24 24 25 26 27 28 29 30 30 30 30 31 32 32 32 32 31 30 30 31 31 31 32 33 35 37 38 39 39 38 39 39 39 39 39 39 39 39 39 41 41 40 37 32 28 28 28 27
Wind_Direction
77 147 235 229 219 227 226 208 204 184 139 127 141 137 162 173 262 312 119 163 102 78 41 69 93 89 75 48 45 61 70 71 71 71 70 72 73 75 78 78 80 81 81 86 89 87 86 85 83 81 79 77 75 70 63 60 55 51 46 37 36 32 19 9 2 356 352 345 342 340 336 333 328 324 319 315 313 312 313 313 311 311 308 307 307 306
75 187 240 234 220 225 231 197 154 139 113 88 152 157 168 188 225 32 124 259 47 92 97 106 93 74 62 56 49 62 67 60 62 69 71 75 76 76 79 79 82 83 85 90 88 84 83 80 77 74 71 66 62 58 52 48 43 38 33 28 24 16 6 2 358 353 347 343 342 339 334 330 325 321 319 317 315 313 312 310 308 308 307 308 308 307
23 245 249 240 200 146 72 135 136 124 112 83 117 150 200 227 148 93 52 6 26 100 152 155 100 78 68 70 61 66 70 65 68 74 77 80 79 78 79 79 82 85 85 85 82 79 76 72 69 64 58 53 50 48 43 37 30 24 20 17 11 4 358 354 349 345 341 339 337 332 328 325 322 320 317 315 313 311 309 309 309 310 310 311 311 312
314 257 259 236 164 134 65 71 109 91 86 118 128 146 213 240 157 148 32 22 24 91 146 141 101 90 94 79 68 72 77 74 73 77 79 80 81 80 81 81 81 82 80 79 76 72 69 65 60 53 47 42 37 35 31 25 19 15 12 7 2 357 353 349 345 342 338 334 330 325 323 321 319 317 314 312 310 310 311 310 311 312 313 314 315 316
249 249 244 79 105 140 117 40 102 127 316 286 183 180 189 198 166 128 131 100 52 67 136 124 90 114 133 102 94 84 77 69 67 74 75 76 81 82 82 80 78 78 76 74 71 65 61 56 49 44 38 32 26 23 19 15 13 10 7 2 357 352 349 346 342 338 335 331 326 322 320 317 315 313 312 311 311 313 315 315 316 317 317 318 317 317
276 279 202 81 65 71 115 277 238 166 249 310 226 209 196 168 123 121 142 128 71 67 200 152 104 218 172 128 131 115 75 64 59 67 70 73 80 81 80 78 76 76 73 70 66 59 53 47 41 36 30 24 20 17 12 8 6 4 0 356 352 348 345 343 340 338 335 332 330 329 329 328 327 325 324 324 323 323 323 321 321 320 319 318 317 316
278 352 54 99 88 63 58 294 269 149 133 316 257 185 159 126 122 142 161 147 113 200 219 199 190 191 197 172 149 134 95 77 61 63 69 74 77 80 80 78 76 73 70 66 61 53 46 38 32 27 22 18 15 12 7 2 359 357 354 352 349 347 345 343 341 339 337 335 335 335 336 338 335 332 331 330 328 326 324 322 320 319 318 317 316 315
236 0 27 51 64 56 34 345 291 121 119 254 241 134 118 111 134 165 177 185 190 191 156 182 165 136 207 193 150 136 107 83 66 61 68 77 81 84 82 77 73 69 63 59 53 45 38 30 25 21 16 13 9 6 2 357 354 352 352 350 348 347 345 344 342 341 340 338 338 339 338 337 335 332 329 326 325 324 321 320 319 318 318 318 317 316
254 18 26 39 43 37 334 281 248 136 120 255 201 127 91 104 141 164 167 187 245 25 256 200 166 165 244 151 132 138 120 98 87 71 69 84 93 94 86 78 71 65 57 50 45 38 32 24 19 15 10 7 3 360 356 353 353 352 351 350 348 346 345 344 342 341 341 340 339 340 339 336 334 330 327 325 324 323 321 320 320 319 319 319 318 316
2 66 81 80 64 5 270 278 241 149 56 189 134 89 52 59 59 92 131 131 62 29 236 215 186 194 259 155 147 155 148 140 126 96 80 94 104 104 93 83 70 60 51 41 35 29 23 17 13 8 2 359 355 354 352 351 351 350 349 348 347 346 345 345 343 342 342 341 341 341 338 335 332 329 326 324 323 323 322 322 321 321 320 319 318 316
330 43 133 78 77 229 206 40 29 125 128 128 110 60 49 46 39 49 68 98 81 276 252 242 209 181 257 176 152 186 177 150 140 121 95 99 108 109 98 84 68 54 43 32 22 17 11 6 3 358 353 352 351 350 350 349 350 349 349 349 349 348 346 346 345 344 344 343 342 341 338 335 333 331 328 326 326 325 325 324 323 322 321 319 317 316
6 42 15 13 20 11 109 87 31 48 90 108 98 61 57 351 16 32 353 56 108 258 259 279 249 163 207 223 88 24 94 122 131 131 112 106 113 116 104 83 61 42 30 19 10 5 3 360 358 356 353 352 352 350 350 350 349 349 349 349 350 348 346 346 344 343 343 343 342 341 339 337 335 333 331 330 329 328 328 327 325 324 322 320 319 318
4 323 316 343 40 24 41 68 11 15 44 50 33 55 43 335 7 358 314 276 202 246 251 314 357 149 189 295 73 69 86 106 118 117 110 106 113 119 106 81 47 25 15 8 4 1 0 0 359 357 354 351 351 350 349 350 348 348 349 348 349 348 346 345 344 344 343 343 343 342 341 339 336 335 333 332 330 330 329 327 325 324 323 321 320 320
342 301 337 16 15 10 37 57 3 330 1 6 349 88 92 36 26 300 277 268 274 259 225 316 13 139 107 100 122 82 100 120 118 109 100 96 101 106 86 57 16 4 5 4 3 1 358 358 357 355 353 350 349 348 347 347 347 347 348 348 348 348 348 348 348 348 347 346 346 344 341 340 338 335 333 332 331 331 329 326 324 324 322 320 319 318
16 308 335 27 329 351 31 63 50 216 1 338 191 130 131 156 150 262 239 233 279 281 281 323 27 219 178 105 133 112 111 122 121 109 95 86 84 84 60 17 354 352 2 1 356 356 355 354 354 352 350 348 346 345 344 346 347 347 347 347 347 348 349 349 350 349 348 347 345 343 340 339 338 335 333 332 332 331 328 324 324 322 320 318 317 317
49 275 279 333 305 352 25 303 131 76 34 275 173 94 50 188 154 200 199 185 229 298 313 322 105 22 47 80 121 118 109 112 122 118 100 85 74 72 49 3 347 340 350 352 347 352 352 351 351 349 348 345 342 342 343 346 348 346 346 347 347 348 347 347 348 347 347 345 342 340 340 340 338 335 334 333 332 332 328 325 324 322 321 320 319 318
22 280 288 350 341 54 47 280 313 45 325 324 55 35 260 168 120 106 271 15 65 32 292 169 133 79 80 179 171 128 112 99 110 122 114 96 70 59 37 359 333 329 344 346 344 349 348 348 348 346 344 341 340 342 344 346 348 346 345 346 347 347 346 346 346 345 345 343 340 340 341 340 338 336 335 333 332 331 328 325 324 323 322 321 320 318
140 279 306 16 1 336 22 316 10 44 79 49 1 239 245 78 93 102 296 353 29 294 278 97 134 180 186 179 172 159 141 114 92 93 129 111 65 45 23 360 321 322 341 336 337 344 344 346 346 342 340 340 340 342 344 346 345 344 344 345 345 346 345 345 344 344 344 343 341 342 341 339 338 336 334 332 331 330 328 326 325 323 322 321 320 319
119 293 306 318 225 307 357 68 359 358 44 65 220 227 71 70 11 19 28 349 359 308 292 336 111 208 211 174 179 182 161 125 92 61 106 85 44 37 12 358 324 312 332 337 340 343 344 346 343 341 340 340 341 342 344 345 342 342 344 345 345 346 345 344 344 344 344 343 342 341 340 338 337 335 333 332 331 329 327 326 325 323 322 321 319 319
77 114 293 277 256 318 4 48 3 334 352 24 26 2 30 120 162 331 26 169 239 296 294 329 338 247 242 176 169 165 137 120 99 63 68 25 23 28 4 352 327 312 328 342 344 342 342 343 343 342 339 338 340 342 343 342 340 342 344 344 345 345 344 344 344 343 343 343 341 340 339 337 335 333 332 331 330 328 327 326 324 322 321 321 321 321
8 105 272 289 327 9 9 17 355 309 313 351 26 12 346 356 144 339 52 124 140 250 248 322 313 255 71 28 120 124 116 115 96 72 47 14 13 18 0 347 326 321 329 340 343 340 337 340 343 339 335 337 340 342 342 339 340 342 343 344 345 344 344 343 343 343 342 341 340 338 337 335 333 332 332 331 330 329 327 326 325 324 323 323 323 323
6 89 251 296 339 20 339 318 314 268 258 74 71 42 310 293 38 42 346 323 45 95 173 225 296 274 80 40 94 96 95 100 79 63 35 10 5 5 355 344 331 329 330 335 339 337 334 340 343 337 335 338 339 340 341 339 340 341 342 343 344 344 344 342 342 341 339 339 338 337 336 334 333 333 332 332 331 329 328 327 326 327 326 323 323 323
35 92 49 292 305 313 290 309 42 104 91 90 75 39 336 352 73 101 255 287 344 353 28 123 297 268 81 42 85 78 68 85 70 51 26 3 355 351 349 344 332 324 328 335 337 335 335 340 342 338 337 338 337 339 340 338 338 340 341 343 343 343 342 341 340 339 337 337 337 336 335 334 334 334 333 332 331 329 329 328 328 327 324 322 322 321
31 68 23 303 301 322 314 328 48 98 80 71 35 30 45 342 3 165 189 209 271 323 6 65 309 266 196 112 100 82 62 71 60 32 10 355 348 347 346 342 330 325 333 340 339 336 337 340 340 337 336 336 337 340 339 337 337 338 340 341 342 341 340 340 339 336 335 336 336 335 335 335 334 333 332 332 331 330 330 329 327 325 322 322 322 320
354 59 48 6 346 347 345 349 342 340 40 50 2 10 27 0 358 321 188 42 6 306 67 127 266 274 140 122 106 85 56 45 33 11 358 352 349 346 344 338 331 332 338 342 341 338 339 340 338 335 334 335 338 338 336 335 335 336 338 340 340 340 339 339 336 333 334 335 335 335 335 334 333 332 331 331 331 331 330 327 324 323 322 322 321 320
50 148 91 82 46 330 313 312 317 320 348 22 4 359 9 25 13 323 288 37 34 328 33 153 230 283 132 151 118 63 36 12 360 355 350 350 348 343 339 336 333 336 340 342 342 340 338 338 335 332 333 335 337 336 334 333 334 335 337 339 340 339 339 338 334 333 334 334 334 334 334 334 332 331 331 331 332 330 327 325 324 323 323 323 321 320
106 65 63 128 159 222 242 259 305 342 349 333 344 353 357 357 0 52 78 49 224 305 334 225 202 332 129 157 41 15 11 355 346 346 344 344 343 339 334 332 331 334 339 341 340 338 336 335 333 332 333 334 334 333 332 333 334 335 336 338 339 339 339 338 335 334 334 333 333 334 334 333 331 331 331 332 331 329 326 325 325 324 324 323 322 321
102 35 19 121 178 237 237 283 322 21 71 49 359 355 355 353 13 66 79 6 67 38 308 260 56 337 326 78 25 352 351 349 340 340 338 336 336 333 329 328 329 334 339 341 339 337 336 334 332 331 332 333 332 331 331 332 334 335 336 338 338 338 338 336 334 333 333 333 334 334 333 332 331 331 332 331 330 328 327 326 326 325 325 324 323 322
110 44 352 143 268 279 305 323 338 77 85 66 37 9 1 8 31 70 100 172 67 69 267 296 349 313 292 50 7 340 347 344 332 331 332 333 332 329 325 328 333 339 341 339 338 337 335 332 330 331 331 331 330 330 331 333 334 335 337 337 337 337 336 335 333 333 333 334 334 333 332 332 332 331 331 330 329 328 328 327 327 326 325 324 322 321
100 15 332 121 307 320 359 349 31 97 104 66 40 22 8 14 37 67 108 277 13 278 265 316 331 294 205 46 337 332 339 333 328 329 331 332 329 324 326 332 338 341 340 337 337 336 333 330 329 329 329 329 329 330 332 334 335 336 336 337 337 337 336 335 333 333 334 334 334 333 333 333 332 331 330 330 329 328 328 328 327 326 325 323 322 320
33 354 331 73 353 316 337 5 34 88 114 101 50 18 9 11 26 37 20 359 344 302 295 333 316 283 84 16 333 330 334 331 329 328 328 328 324 322 330 337 340 339 337 336 336 333 330 328 328 328 328 328 330 331 333 334 334 335 335 336 336 336 336 334 333 334 334 334 334 334 334 333 332 331 330 329 329 329 329 328 327 326 324 323 321 321
27 10 7 52 17 304 310 13 0 54 98 81 20 357 358 0 8 359 335 316 306 297 305 323 310 270 343 341 330 326 329 328 323 320 323 322 319 326 336 339 339 338 335 334 333 330 327 326 327 328 328 329 331 332 333 334 333 334 335 335 336 336 335 334 334 334 335 335 335 335 334 333 332 330 330 329 330 330 329 327 326 325 324 322 322 321
47 58 41 39 10 287 294 327 299 6 47 3 321 331 318 308 7 342 297 292 287 272 280 296 293 300 329 331 327 324 328 328 319 319 321 317 316 331 339 340 338 335 333 332 330 327 325 326 327 327 328 330 331 332 333 333 333 334 334 335 335 335 334 334 334 335 335 335 335 335 334 333 331 330 330 330 331 330 328 327 326 324 323 322 322 320
66 86 95 47 20 281 296 327 28 55 23 277 227 317 274 238 93 354 306 300 307 249 202 276 309 331 333 332 327 320 321 320 318 318 314 304 315 334 339 338 334 331 331 331 328 326 325 326 326 328 330 331 332 333 333 333 333 333 334 335 335 335 334 335 335 335 336 336 335 335 334 333 331 331 331 331 330 328 327 326 325 323 323 322 321 319
58 67 103 101 62 280 310 7 27 10 278 216 170 13 309 208 152 320 299 272 110 45 37 0 332 327 325 321 315 311 310 314 317 315 301 285 317 334 335 333 330 330 331 331 328 325 325 326 327 329 331 332 332 333 333 333 333 332 333 335 335 335 335 335 336 336 337 336 336 335 335 334 332 332 332 331 330 327 326 326 324 323 323 322 320 319
83 93 105 87 22 328 7 23 352 283 241 206 357 356 353 29 352 332 317 228 171 75 43 334 309 312 316 314 311 313 314 316 316 306 271 276 321 330 330 329 328 329 330 329 326 324 325 326 328 329 330 331 333 334 334 333 333 332 334 336 336 336 336 336 336 338 338 337 337 337 336 335 333 333 333 331 329 327 327 326 324 324 325 323 320 320
82 120 79 46 38 41 25 278 289 325 359 341 330 341 349 302 291 323 322 244 192 147 16 317 296 305 314 313 314 322 322 318 312 277 241 298 324 326 326 326 326 326 328 326 324 324 326 327 328 330 331 332 335 336 335 333 333 333 334 336 336 336 336 337 338 339 338 338 338 337 336 336 335 334 333 331 329 328 327 326 326 326 326 324 322 323
55 79 86 78 51 59 68 314 338 0 326 264 232 238 296 300 275 230 227 253 194 150 336 321 299 311 319 319 323 331 331 323 310 252 301 323 326 325 323 323 324 327 328 327 326 328 329 329 330 332 334 335 336 336 335 334 333 334 335 336 336 336 336 338 339 339 338 338 338 337 337 336 336 334 333 331 330 329 328 327 327 328 328 326 325 326
41 48 84 84 41 48 77 10 307 255 256 242 215 258 321 321 287 187 3 284 233 310 326 322 312 317 322 321 326 337 340 330 321 325 325 323 321 320 320 322 327 330 331 330 331 330 330 330 332 334 336 337 337 336 336 334 334 335 335 336 336 336 337 339 339 339 338 338 338 338 337 337 336 335 334 332 330 330 328 328 330 330 329 329 328 328
23 10 34 56 48 97 115 311 248 232 252 216 213 291 321 321 142 73 345 296 238 294 321 327 322 320 323 322 325 337 337 306 301 309 315 316 315 317 321 326 331 333 333 334 334 331 330 332 335 337 338 339 338 337 336 335 335 336 336 336 337 337 338 339 339 338 338 337 338 338 338 338 337 336 335 333 332 331 331 332 333 332 332 332 331 330
8 351 24 72 79 83 127 258 276 274 240 206 271 311 321 329 92 40 316 294 320 328 327 329 323 320 321 319 316 307 296 296 299 305 311 314 315 320 325 329 332 334 335 337 336 332 333 335 337 338 339 340 339 339 338 336 336 337 337 337 338 338 338 338 338 338 338 338 339 339 339 339 338 337 337 336 335 334 334 335 335 334 334 334 332 332
8 346 350 59 63 32 124 182 298 291 215 229 321 325 335 29 356 306 301 319 329 324 321 320 317 318 319 315 309 305 304 308 310 311 314 317 318 323 328 331 334 337 339 339 337 335 335 336 338 339 340 342 342 340 339 338 337 338 338 338 339 339 338 339 338 338 339 340 340 340 340 340 340 340 339 339 339 337 337 338 338 336 337 336 334 334
193 323 319 296 196 25 12 348 321 287 226 297 337 342 90 123 285 296 313 319 317 315 315 313 313 318 318 313 312 312 312 315 317 316 317 319 321 326 331 334 337 340 341 340 338 337 337 337 339 340 342 344 343 341 341 340 339 339 339 338 339 339 339 339 339 339 340 341 341 342 342 341 341 343 343 343 342 340 339 339 339 340 340 338 337 336
207 173 278 269 201 110 34 231 199 252 279 322 336 289 261 273 281 292 307 311 312 314 312 309 311 315 315 314 315 316 316 317 318 318 319 321 324 329 334 337 339 340 340 340 339 338 338 338 339 340 343 345 344 343 343 342 339 338 338 339 340 340 340 340 339 340 342 343 343 343 343 342 344 345 346 347 345 342 341 341 342 343 343 341 339 339
221 189 189 240 223 196 224 241 262 298 306 303 298 290 285 281 281 290 304 309 312 312 308 308 310 313 315 317 316 316 317 318 318 320 321 321 326 332 336 337 339 340 339 339 339 339 339 339 340 342 344 346 345 344 345 343 340 338 338 339 340 341 341 340 340 342 344 344 344 344 344 344 346 347 349 349 347 344 343 344 344 345 345 344 342 340
206 176 146 154 262 271 265 258 265 285 294 297 304 303 292 281 283 298 311 312 310 309 307 308 310 313 319 321 317 316 318 319 319 322 322 323 329 334 336 337 340 341 339 339 339 339 339 340 342 343 344 345 346 345 345 344 341 338 338 340 341 341 341 341 341 344 345 345 345 346 345 346 348 349 350 351 349 347 347 347 346 345 346 346 344 342
197 178 173 171 280 308 286 241 243 287 301 305 307 298 283 285 297 308 314 313 310 311 311 310 313 318 321 321 317 316 318 321 322 322 322 326 332 335 336 338 340 340 339 339 339 339 341 344 344 344 344 345 346 346 345 344 342 339 339 341 342 342 342 342 343 345 346 346 346 347 348 349 349 349 350 352 351 350 349 349 349 348 348 347 344 343
172 179 203 212 188 228 263 262 278 298 300 298 297 285 279 294 306 311 315 315 313 313 312 313 317 321 322 322 320 319 321 324 325 324 325 329 333 335 336 338 338 338 339 340 340 341 344 346 344 344 345 345 345 345 345 344 342 341 341 342 343 343 344 344 345 346 347 347 348 348 349 351 351 350 350 352 353 352 351 352 352 352 351 350 344 337
150 170 196 195 224 266 274 277 296 309 301 282 288 293 294 302 309 312 315 315 313 313 312 314 319 322 323 323 323 322 323 325 326 325 326 330 333 335 336 337 338 339 340 340 342 344 346 346 345 345 345 345 345 344 345 344 342 342 343 344 344 345 346 346 346 347 348 348 349 350 351 351 351 351 352 352 353 353 353 354 354 353 352 352 350 341
159 185 175 140 306 285 266 278 314 318 288 285 297 301 300 304 309 311 313 313 312 312 313 316 321 324 324 324 323 322 322 323 325 325 327 331 335 336 336 337 338 340 341 342 344 345 346 346 346 345 345 345 344 344 345 345 343 343 344 345 346 348 348 347 346 347 349 349 350 351 352 352 352 352 353 354 354 353 354 355 357 357 352 350 354 356
197 208 187 183 243 258 267 286 293 279 276 290 301 302 300 304 308 310 312 313 312 312 315 319 323 324 323 324 325 322 320 322 326 327 328 333 336 336 336 338 339 340 342 343 344 344 346 347 346 345 344 345 345 345 347 346 344 344 346 347 348 350 350 348 347 347 349 350 351 353 353 352 352 353 354 355 355 355 355 355 357 1 1 358 359 3